Location: Toronto
(43.6667°N, 79.4167°W)
Time: 01:14:51
(UTC-04:00)

X-37B - Pass Details

Date: 18 June 2021
Orbit: 383 x 392 km, 45.0° (Epoch: 01 July)

Event Time Altitude Azimuth Distance (km) Brightness Sun altitude
Exits shadow 02:57:20 51° 296° (WNW) 487 1.0 -19.2°
Maximum altitude 02:57:55 68° 355° (N) 418 0.8 -19.2°
Drops below altitude 10° 03:01:05 10° 79° (E) 1,408 3.9 -18.9°
Sets 03:03:10 0° 82° (E) 2,264 4.9 -18.8°
